Check out our new BloomSky Weather System.

Active alerts


No alerts


Thunder radar  blitzortung!


Rain radar more information rain snow radar


Visit our other weather sites:

Template documentation
and downloads

And another site



Weather Underground History page Text

Daily Summary for May 4, 2017 Units:  English    Metric   Both
« Previous Day
Next Day »
Daily Weekly Monthly Yearly Custom
  High: Low: Average:
Temperature: 75.0 °F 55.6 °F 64.4 °F
Dew Point: 55.2 °F 40.8 °F 48.9 °F
Humidity: 83 % 30 % 61 %
Wind Speed: 17.0 mph 0.0 mph 4.3 mph
Wind Gust: 27.0 mph - -
Wind:- - WNW
Pressure: 30.02 in 29.85 in -
Precipitation: 0.00 in    
Historical Graphs
 
 
Tabular Data for May 4, 2017
Time Temperature Dew Point Pressure Wind Wind Speed Wind Gust Humidity Rainfall Rate (Hourly)
00:02 63.9 °F 55.0 °F 29.89 in North 8.0 mph 16.0 mph 73 % 0.00 in
00:07 63.9 °F 55.0 °F 29.89 in NW 5.0 mph 16.0 mph 73 % 0.00 in
00:12 63.7 °F 55.2 °F 29.88 in WNW 7.0 mph 16.0 mph 74 % 0.00 in
00:17 63.7 °F 55.2 °F 29.88 in NW 4.0 mph 16.0 mph 74 % 0.00 in
00:22 63.3 °F 55.2 °F 29.88 in NNW 7.0 mph 16.0 mph 75 % 0.00 in
00:27 63.3 °F 55.2 °F 29.88 in NNW 4.0 mph 16.0 mph 75 % 0.00 in
00:32 63.3 °F 55.2 °F 29.88 in WNW 7.0 mph 13.0 mph 75 % 0.00 in
00:37 63.3 °F 55.2 °F 29.88 in SE 6.0 mph 13.0 mph 75 % 0.00 in
00:42 63.1 °F 55.0 °F 29.89 in NNW 2.0 mph 14.0 mph 75 % 0.00 in
00:47 63.1 °F 55.0 °F 29.89 in WNW 12.0 mph 14.0 mph 75 % 0.00 in
00:52 63.1 °F 55.0 °F 29.89 in NE 5.0 mph 15.0 mph 75 % 0.00 in
00:57 63.0 °F 54.9 °F 29.89 in WNW 6.0 mph 15.0 mph 75 % 0.00 in
01:02 63.0 °F 54.9 °F 29.89 in WNW 8.0 mph 15.0 mph 75 % 0.00 in
01:07 62.8 °F 54.7 °F 29.88 in WNW 6.0 mph 12.0 mph 75 % 0.00 in
01:12 62.8 °F 54.7 °F 29.88 in NW 4.0 mph 12.0 mph 75 % 0.00 in
01:17 62.6 °F 54.5 °F 29.88 in WNW 4.0 mph 11.0 mph 75 % 0.00 in
01:22 62.4 °F 54.7 °F 29.88 in NNE 8.0 mph 13.0 mph 76 % 0.00 in
01:27 62.4 °F 54.7 °F 29.88 in NW 3.0 mph 13.0 mph 76 % 0.00 in
01:32 62.2 °F 54.9 °F 29.88 in NW 4.0 mph 13.0 mph 77 % 0.00 in
01:37 62.1 °F 54.7 °F 29.87 in WNW 1.0 mph 10.0 mph 77 % 0.00 in
01:42 62.1 °F 54.7 °F 29.88 in WNW 6.0 mph 10.0 mph 77 % 0.00 in
01:47 61.9 °F 54.7 °F 29.87 in West 4.0 mph 13.0 mph 77 % 0.00 in
01:52 61.9 °F 54.7 °F 29.87 in WNW 4.0 mph 15.0 mph 77 % 0.00 in
01:57 61.9 °F 54.3 °F 29.87 in NNW 17.0 mph 17.0 mph 76 % 0.00 in
02:02 61.9 °F 53.8 °F 29.88 in NW 5.0 mph 19.0 mph 75 % 0.00 in
02:07 61.9 °F 53.8 °F 29.87 in NW 8.0 mph 19.0 mph 75 % 0.00 in
02:12 61.5 °F 53.6 °F 29.87 in WNW 4.0 mph 19.0 mph 75 % 0.00 in
02:17 61.5 °F 53.2 °F 29.86 in WNW 8.0 mph 16.0 mph 74 % 0.00 in
02:22 61.5 °F 52.7 °F 29.87 in NW 3.0 mph 16.0 mph 73 % 0.00 in
02:27 61.7 °F 52.9 °F 29.86 in North 6.0 mph 17.0 mph 73 % 0.00 in
02:32 61.5 °F 52.7 °F 29.86 in NW 2.0 mph 17.0 mph 73 % 0.00 in
02:37 61.3 °F 53.1 °F 29.86 in NNW 6.0 mph 17.0 mph 74 % 0.00 in
02:42 61.3 °F 53.1 °F 29.86 in NNW 6.0 mph 14.0 mph 74 % 0.00 in
02:48 61.2 °F 52.9 °F 29.86 in NNW 6.0 mph 14.0 mph 74 % 0.00 in
02:49 61.0 °F 52.7 °F 29.86 in NW 7.0 mph 14.0 mph 74 % 0.00 in
02:54 61.0 °F 52.7 °F 29.86 in WNW 9.0 mph 14.0 mph 74 % 0.00 in
02:59 61.0 °F 52.3 °F 29.85 in NW 10.0 mph 15.0 mph 73 % 0.00 in
03:04 61.0 °F 52.0 °F 29.86 in North 10.0 mph 19.0 mph 72 % 0.00 in
03:09 61.0 °F 52.0 °F 29.86 in North 7.0 mph 19.0 mph 72 % 0.00 in
03:14 61.2 °F 51.6 °F 29.87 in NW 5.0 mph 19.0 mph 71 % 0.00 in
03:19 61.0 °F 51.4 °F 29.88 in North 7.0 mph 17.0 mph 71 % 0.00 in
03:24 61.0 °F 51.4 °F 29.88 in NNW 4.0 mph 17.0 mph 71 % 0.00 in
03:29 60.8 °F 51.3 °F 29.88 in NW 6.0 mph 17.0 mph 71 % 0.00 in
03:34 61.0 °F 51.4 °F 29.89 in NE 5.0 mph 16.0 mph 71 % 0.00 in
03:39 60.8 °F 51.3 °F 29.88 in WNW 8.0 mph 13.0 mph 71 % 0.00 in
03:44 60.6 °F 51.1 °F 29.89 in NNW 5.0 mph 13.0 mph 71 % 0.00 in
03:50 60.4 °F 51.1 °F 29.88 in NW 7.0 mph 13.0 mph 71 % 0.00 in
03:55 60.4 °F 51.1 °F 29.89 in North 6.0 mph 13.0 mph 71 % 0.00 in
04:00 60.3 °F 50.4 °F 29.88 in NW 7.0 mph 13.0 mph 70 % 0.00 in
04:05 60.3 °F 50.4 °F 29.88 in WNW 2.0 mph 11.0 mph 70 % 0.00 in
04:10 60.1 °F 50.2 °F 29.88 in NW 6.0 mph 11.0 mph 70 % 0.00 in
04:15 60.1 °F 50.7 °F 29.89 in NW 7.0 mph 11.0 mph 71 % 0.00 in
04:20 59.9 °F 50.5 °F 29.88 in NNE 2.0 mph 11.0 mph 71 % 0.00 in
04:25 59.7 °F 50.7 °F 29.90 in WNW 4.0 mph 11.0 mph 72 % 0.00 in
04:30 59.4 °F 50.7 °F 29.90 in Calm   8.0 mph 73 % 0.00 in
04:35 59.4 °F 50.7 °F 29.91 in WNW 1.0 mph 8.0 mph 73 % 0.00 in
04:40 59.2 °F 50.9 °F 29.91 in NNW 2.0 mph 8.0 mph 74 % 0.00 in
04:45 58.8 °F 50.9 °F 29.92 in WNW 2.0 mph 8.0 mph 75 % 0.00 in
04:50 58.8 °F 50.9 °F 29.92 in North 2.0 mph 6.0 mph 75 % 0.00 in
04:55 58.6 °F 50.7 °F 29.93 in NW 2.0 mph 6.0 mph 75 % 0.00 in
05:00 58.5 °F 50.9 °F 29.93 in Calm   5.0 mph 76 % 0.00 in
05:05 57.9 °F 50.7 °F 29.94 in Calm   3.0 mph 77 % 0.00 in
05:10 57.7 °F 50.9 °F 29.93 in NW 1.0 mph 3.0 mph 78 % 0.00 in
05:15 57.6 °F 50.7 °F 29.93 in Calm   2.0 mph 78 % 0.00 in
05:20 57.6 °F 51.1 °F 29.94 in Calm   4.0 mph 79 % 0.00 in
05:25 57.4 °F 50.9 °F 29.94 in WNW 1.0 mph 4.0 mph 79 % 0.00 in
05:30 57.0 °F 50.9 °F 29.93 in WSW 1.0 mph 4.0 mph 80 % 0.00 in
05:35 56.8 °F 50.7 °F 29.93 in Calm   2.0 mph 80 % 0.00 in
05:40 56.5 °F 50.7 °F 29.94 in Calm   2.0 mph 81 % 0.00 in
05:45 56.3 °F 50.9 °F 29.93 in WNW 1.0 mph 2.0 mph 82 % 0.00 in
05:50 56.1 °F 50.7 °F 29.92 in Calm   3.0 mph 82 % 0.00 in
05:55 55.9 °F 50.9 °F 29.93 in West 3.0 mph 3.0 mph 83 % 0.00 in
06:00 55.9 °F 50.9 °F 29.93 in NNW 1.0 mph 4.0 mph 83 % 0.00 in
06:05 55.9 °F 50.9 °F 29.93 in WNW 1.0 mph 4.0 mph 83 % 0.00 in
06:10 55.9 °F 50.5 °F 29.92 in Calm   4.0 mph 82 % 0.00 in
06:15 55.8 °F 50.4 °F 29.93 in NW 1.0 mph 3.0 mph 82 % 0.00 in
06:20 55.8 °F 50.7 °F 29.93 in NW 1.0 mph 3.0 mph 83 % 0.00 in
06:25 55.9 °F 50.5 °F 29.93 in Calm   3.0 mph 82 % 0.00 in
06:30 55.8 °F 50.4 °F 29.93 in Calm   3.0 mph 82 % 0.00 in
06:35 55.6 °F 50.5 °F 29.94 in Calm   3.0 mph 83 % 0.00 in
06:40 55.8 °F 50.7 °F 29.94 in NNW 2.0 mph 7.0 mph 83 % 0.00 in
06:45 55.6 °F 50.5 °F 29.94 in NNW 2.0 mph 7.0 mph 83 % 0.00 in
06:50 55.6 °F 50.5 °F 29.94 in Calm   7.0 mph 83 % 0.00 in
06:55 55.6 °F 50.5 °F 29.95 in NW 2.0 mph 4.0 mph 83 % 0.00 in
07:00 55.8 °F 50.7 °F 29.95 in NW 1.0 mph 4.0 mph 83 % 0.00 in
07:05 55.9 °F 50.5 °F 29.96 in NNW 2.0 mph 6.0 mph 82 % 0.00 in
07:10 56.3 °F 50.5 °F 29.96 in NW 6.0 mph 6.0 mph 81 % 0.00 in
07:15 56.7 °F 50.9 °F 29.97 in NW 2.0 mph 6.0 mph 81 % 0.00 in
07:20 56.8 °F 50.7 °F 29.97 in NW 2.0 mph 6.0 mph 80 % 0.00 in
07:25 57.2 °F 51.1 °F 29.97 in NW 3.0 mph 6.0 mph 80 % 0.00 in
07:30 57.6 °F 51.1 °F 29.97 in NNW 1.0 mph 6.0 mph 79 % 0.00 in
07:35 57.9 °F 51.1 °F 29.97 in NW 1.0 mph 6.0 mph 78 % 0.00 in
07:40 58.3 °F 51.1 °F 29.98 in NW 4.0 mph 6.0 mph 77 % 0.00 in
07:45 58.6 °F 51.4 °F 29.98 in NNW 3.0 mph 5.0 mph 77 % 0.00 in
07:50 59.0 °F 51.1 °F 29.99 in Calm   5.0 mph 75 % 0.00 in
07:55 59.2 °F 50.9 °F 29.99 in WNW 3.0 mph 5.0 mph 74 % 0.00 in
08:00 59.4 °F 50.4 °F 29.99 in NW 3.0 mph 11.0 mph 72 % 0.00 in
08:05 59.5 °F 50.2 °F 30.00 in NW 6.0 mph 11.0 mph 71 % 0.00 in
08:10 59.5 °F 50.2 °F 30.00 in WNW 4.0 mph 13.0 mph 71 % 0.00 in
08:15 59.9 °F 50.5 °F 30.00 in NW 6.0 mph 13.0 mph 71 % 0.00 in
08:20 60.1 °F 50.7 °F 30.00 in NW 8.0 mph 13.0 mph 71 % 0.00 in
08:25 60.3 °F 49.6 °F 30.00 in West 2.0 mph 15.0 mph 68 % 0.00 in
08:30 60.6 °F 50.0 °F 30.01 in NW 14.0 mph 15.0 mph 68 % 0.00 in
08:35 60.6 °F 49.6 °F 30.01 in NW 5.0 mph 19.0 mph 67 % 0.00 in
10:23 73.6 °F 43.5 °F 29.94 in NW 16.0 mph 19.0 mph 34 % 0.00 in
10:24 73.6 °F 41.9 °F 29.94 in NNW 10.0 mph 19.0 mph 32 % 0.00 in
10:25 73.4 °F 42.6 °F 29.93 in SW 11.0 mph 19.0 mph 33 % 0.00 in
10:26 73.2 °F 42.4 °F 29.94 in NW 13.0 mph 17.0 mph 33 % 0.00 in
15:28 73.2 °F 41.5 °F 29.94 in NW 11.0 mph 17.0 mph 32 % 0.00 in
15:33 73.2 °F 40.8 °F 29.94 in West 12.0 mph 17.0 mph 31 % 0.00 in
15:38 73.2 °F 40.8 °F 29.93 in NW 10.0 mph 27.0 mph 31 % 0.00 in
15:43 73.8 °F 42.1 °F 29.93 in WNW 4.0 mph 27.0 mph 32 % 0.00 in
15:48 73.9 °F 42.3 °F 29.93 in NNW 8.0 mph 27.0 mph 32 % 0.00 in
15:53 73.9 °F 41.4 °F 29.93 in NW 9.0 mph 19.0 mph 31 % 0.00 in
15:58 74.1 °F 42.4 °F 29.93 in NW 8.0 mph 18.0 mph 32 % 0.00 in
16:03 74.7 °F 43.7 °F 29.93 in NW 12.0 mph 18.0 mph 33 % 0.00 in
16:08 74.3 °F 43.3 °F 29.92 in NW 12.0 mph 18.0 mph 33 % 0.00 in
16:13 74.1 °F 43.2 °F 29.93 in North 6.0 mph 17.0 mph 33 % 0.00 in
16:18 74.5 °F 43.5 °F 29.93 in WNW 4.0 mph 17.0 mph 33 % 0.00 in
16:23 75.0 °F 42.3 °F 29.93 in WNW 16.0 mph 17.0 mph 31 % 0.00 in
16:28 74.7 °F 42.1 °F 29.92 in WNW 6.0 mph 19.0 mph 31 % 0.00 in
16:33 74.7 °F 44.4 °F 29.92 in NNE 6.0 mph 19.0 mph 34 % 0.00 in
16:38 74.8 °F 42.3 °F 29.93 in SW 6.0 mph 19.0 mph 31 % 0.00 in
16:43 74.7 °F 42.8 °F 29.92 in NW 9.0 mph 17.0 mph 32 % 0.00 in
16:48 74.3 °F 40.8 °F 29.93 in NW 15.0 mph 16.0 mph 30 % 0.00 in
16:53 74.1 °F 42.4 °F 29.92 in NNW 14.0 mph 19.0 mph 32 % 0.00 in
16:58 73.9 °F 42.3 °F 29.92 in WNW 15.0 mph 19.0 mph 32 % 0.00 in
17:03 74.5 °F 41.9 °F 29.92 in WNW 4.0 mph 23.0 mph 31 % 0.00 in
17:08 74.3 °F 41.7 °F 29.92 in NNE 10.0 mph 23.0 mph 31 % 0.00 in
17:09 74.3 °F 41.7 °F 29.92 in NNW 7.0 mph 23.0 mph 31 % 0.00 in
17:14 74.1 °F 42.4 °F 29.92 in WNW 8.0 mph 23.0 mph 32 % 0.00 in
17:19 73.9 °F 42.3 °F 29.93 in North 8.0 mph 24.0 mph 32 % 0.00 in
17:24 73.9 °F 42.3 °F 29.93 in NNW 9.0 mph 24.0 mph 32 % 0.00 in
17:29 73.9 °F 43.0 °F 29.93 in NW 14.0 mph 24.0 mph 33 % 0.00 in
17:34 74.1 °F 43.2 °F 29.93 in NNW 8.0 mph 18.0 mph 33 % 0.00 in
17:39 74.3 °F 42.6 °F 29.94 in WNW 9.0 mph 18.0 mph 32 % 0.00 in
17:44 74.3 °F 43.3 °F 29.94 in NW 5.0 mph 20.0 mph 33 % 0.00 in
17:49 73.9 °F 42.3 °F 29.94 in NNW 9.0 mph 20.0 mph 32 % 0.00 in
17:54 73.9 °F 43.0 °F 29.94 in WNW 7.0 mph 20.0 mph 33 % 0.00 in
17:59 73.9 °F 43.0 °F 29.94 in NW 10.0 mph 18.0 mph 33 % 0.00 in
18:04 73.9 °F 43.9 °F 29.94 in NNW 6.0 mph 20.0 mph 34 % 0.00 in
18:09 73.9 °F 43.9 °F 29.94 in NW 7.0 mph 20.0 mph 34 % 0.00 in
18:14 73.8 °F 44.4 °F 29.94 in WNW 7.0 mph 20.0 mph 35 % 0.00 in
18:19 73.8 °F 43.7 °F 29.94 in NW 7.0 mph 15.0 mph 34 % 0.00 in
18:24 73.8 °F 43.7 °F 29.94 in WNW 8.0 mph 16.0 mph 34 % 0.00 in
18:29 73.6 °F 43.5 °F 29.94 in WSW 10.0 mph 16.0 mph 34 % 0.00 in
18:34 73.6 °F 44.2 °F 29.95 in NW 4.0 mph 16.0 mph 35 % 0.00 in
18:39 73.2 °F 43.9 °F 29.95 in NW 5.0 mph 16.0 mph 35 % 0.00 in
18:44 73.2 °F 43.9 °F 29.95 in NE 4.0 mph 16.0 mph 35 % 0.00 in
18:49 73.2 °F 44.6 °F 29.95 in NW 4.0 mph 16.0 mph 36 % 0.00 in
18:54 73.0 °F 44.4 °F 29.96 in NNW 6.0 mph 15.0 mph 36 % 0.00 in
18:59 73.2 °F 45.3 °F 29.96 in NW 6.0 mph 14.0 mph 37 % 0.00 in
19:04 73.0 °F 44.4 °F 29.96 in NW 4.0 mph 14.0 mph 36 % 0.00 in
19:09 72.7 °F 44.2 °F 29.96 in WNW 6.0 mph 15.0 mph 36 % 0.00 in
19:14 72.3 °F 44.6 °F 29.96 in NW 10.0 mph 15.0 mph 37 % 0.00 in
19:19 72.0 °F 45.0 °F 29.96 in NW 5.0 mph 15.0 mph 38 % 0.00 in
19:24 71.8 °F 44.8 °F 29.96 in WNW 10.0 mph 15.0 mph 38 % 0.00 in
19:29 71.6 °F 45.3 °F 29.96 in NW 5.0 mph 14.0 mph 39 % 0.00 in
19:34 71.4 °F 45.1 °F 29.96 in NW 7.0 mph 13.0 mph 39 % 0.00 in
19:39 71.2 °F 45.0 °F 29.97 in NW 9.0 mph 13.0 mph 39 % 0.00 in
19:44 71.2 °F 46.4 °F 29.97 in WNW 2.0 mph 13.0 mph 41 % 0.00 in
19:49 71.1 °F 46.2 °F 29.97 in NNW 2.0 mph 13.0 mph 41 % 0.00 in
19:54 70.7 °F 46.4 °F 29.97 in SSE 1.0 mph 13.0 mph 42 % 0.00 in
19:59 70.5 °F 46.4 °F 29.97 in NW 4.0 mph 9.0 mph 42 % 0.00 in
20:04 70.2 °F 46.6 °F 29.98 in NW 3.0 mph 10.0 mph 43 % 0.00 in
20:09 70.0 °F 47.1 °F 29.98 in NW 2.0 mph 10.0 mph 44 % 0.00 in
20:14 69.6 °F 46.8 °F 29.98 in NW 2.0 mph 10.0 mph 44 % 0.00 in
20:19 69.3 °F 46.9 °F 29.99 in NW 1.0 mph 6.0 mph 45 % 0.00 in
20:24 68.9 °F 46.8 °F 29.99 in NW 1.0 mph 4.0 mph 45 % 0.00 in
20:29 68.5 °F 46.9 °F 29.99 in Calm   4.0 mph 46 % 0.00 in
20:34 68.0 °F 46.9 °F 29.99 in Calm   3.0 mph 47 % 0.00 in
20:36 67.8 °F 46.9 °F 29.99 in Calm   1.0 mph 47 % 0.00 in
20:41 67.5 °F 47.7 °F 29.99 in Calm   1.0 mph 49 % 0.00 in
20:46 66.9 °F 47.7 °F 29.99 in Calm     50 % 0.00 in
20:51 66.4 °F 47.1 °F 29.99 in Calm     50 % 0.00 in
20:56 65.7 °F 47.1 °F 29.99 in Calm     51 % 0.00 in
21:01 65.1 °F 47.1 °F 30.00 in Calm     52 % 0.00 in
21:06 64.6 °F 47.5 °F 30.00 in Calm     54 % 0.00 in
21:11 64.6 °F 48.9 °F 30.00 in Calm     57 % 0.00 in
21:16 64.4 °F 48.9 °F 30.00 in Calm     57 % 0.00 in
21:21 64.2 °F 48.7 °F 30.00 in Calm     57 % 0.00 in
21:26 64.0 °F 48.6 °F 30.00 in Calm     57 % 0.00 in
21:31 63.9 °F 49.3 °F 30.00 in Calm     59 % 0.00 in
21:36 63.7 °F 48.6 °F 30.00 in Calm     58 % 0.00 in
21:41 63.7 °F 48.6 °F 30.01 in Calm     58 % 0.00 in
21:47 63.1 °F 49.1 °F 30.01 in Calm     60 % 0.00 in
21:52 63.0 °F 49.3 °F 30.00 in Calm     61 % 0.00 in
21:57 62.8 °F 49.1 °F 30.00 in Calm     61 % 0.00 in
22:02 62.2 °F 49.1 °F 30.01 in Calm     62 % 0.00 in
22:07 62.1 °F 48.9 °F 30.01 in Calm     62 % 0.00 in
22:12 61.5 °F 48.7 °F 30.01 in Calm     63 % 0.00 in
22:17 61.3 °F 49.1 °F 30.01 in Calm     64 % 0.00 in
22:22 61.0 °F 49.5 °F 30.01 in Calm     66 % 0.00 in
22:27 60.6 °F 49.6 °F 30.01 in Calm     67 % 0.00 in
22:32 60.6 °F 50.0 °F 30.01 in Calm     68 % 0.00 in
22:37 60.4 °F 49.8 °F 30.01 in Calm     68 % 0.00 in
22:42 60.1 °F 49.8 °F 30.01 in Calm     69 % 0.00 in
22:47 60.1 °F 50.2 °F 30.01 in Calm     70 % 0.00 in
22:52 60.1 °F 50.2 °F 30.02 in Calm     70 % 0.00 in
22:57 60.1 °F 49.8 °F 30.02 in Calm     69 % 0.00 in
23:02 60.3 °F 50.0 °F 30.02 in Calm     69 % 0.00 in
23:07 60.3 °F 50.4 °F 30.02 in Calm     70 % 0.00 in
23:12 60.4 °F 50.5 °F 30.02 in Calm     70 % 0.00 in
23:17 60.3 °F 50.9 °F 30.02 in Calm     71 % 0.00 in
23:22 60.1 °F 50.7 °F 30.02 in Calm     71 % 0.00 in
23:27 59.7 °F 50.7 °F 30.02 in Calm     72 % 0.00 in
23:32 59.7 °F 51.1 °F 30.02 in Calm     73 % 0.00 in
23:37 59.5 °F 50.9 °F 30.02 in Calm     73 % 0.00 in
23:42 59.4 °F 51.1 °F 30.02 in Calm     74 % 0.00 in
23:47 59.4 °F 51.1 °F 30.02 in Calm     74 % 0.00 in
23:52 59.2 °F 50.9 °F 30.02 in Calm     74 % 0.00 in
23:57 59.0 °F 51.1 °F 30.02 in Calm     75 % 0.00 in
Spring, Texas: Villages of Bridgestone
Compliments of Weather Underground - 2.5 mb

Script developed by  Jim McMurry - jmcmurry@mwt.net Adapted for the template by  Wim van der Kuil - Leuven-Template.eu

You find our weather info also at:

UK Metoffice

WeatherCloud

Weather Underground

Mid-South Weather Network

AWEKAS

Citizen Weather Observer Program (CWOP)

HAMweather, WeatherForYou, PWS Weather

Equipment we use:

Weather-station
Davis Vantage Vue

Weather-program
Meteohub

Weather-server
Debian 7.9 x86 (Guest)

Provider
DreamHost

Davis Vantage Vue

Meteohub

Debian 7.9 x86 (Guest)

DreamHost